TimeCST,TemperatureF,Dew PointF,Humidity,Sea Level PressureIn,VisibilityMPH,Wind Direction,Wind SpeedMPH,Gust SpeedMPH,PrecipitationIn,Events,Conditions,WindDirDegrees,DateUTC
12:41 AM,71.6,64.4,78,30.03,7.0,ESE,8.1,-,N/A,,Partly Cloudy,110,2013-02-11 06:41:00
2:41 AM,69.8,62.6,78,30.04,7.0,ESE,5.8,-,N/A,,Partly Cloudy,110,2013-02-11 08:41:00
3:41 AM,69.8,64.4,83,30.05,7.0,Calm,Calm,-,N/A,,Partly Cloudy,0,2013-02-11 09:41:00
4:42 AM,68.0,62.6,83,30.02,7.0,ESE,5.8,-,N/A,,Partly Cloudy,110,2013-02-11 10:42:00
5:46 AM,68.0,62.6,83,29.99,7.0,ESE,4.6,-,N/A,,Scattered Clouds,110,2013-02-11 11:46:00
6:43 AM,68.0,64.4,88,30.04,7.0,ESE,6.9,-,N/A,,Partly Cloudy,110,2013-02-11 12:43:00
7:44 AM,73.4,66.2,78,30.05,8.0,ESE,8.1,-,N/A,,Scattered Clouds,120,2013-02-11 13:44:00
8:40 AM,77.0,66.2,69,30.09,8.0,ESE,13.8,-,N/A,,Scattered Clouds,120,2013-02-11 14:40:00
9:44 AM,78.8,66.2,65,30.08,8.0,SE,15.0,-,N/A,,Mostly Cloudy,130,2013-02-11 15:44:00
10:41 AM,78.8,68.0,69,30.08,8.0,ESE,18.4,-,N/A,,Mostly Cloudy,110,2013-02-11 16:41:00
11:40 AM,80.6,66.2,61,30.04,8.0,SE,12.7,24.2,N/A,,Mostly Cloudy,130,2013-02-11 17:40:00
12:44 PM,82.4,64.4,54,30.04,8.0,SE,13.8,-,N/A,,Mostly Cloudy,130,2013-02-11 18:44:00
1:43 PM,82.4,62.6,51,30.02,8.0,SE,11.5,23.0,N/A,,Scattered Clouds,130,2013-02-11 19:43:00
2:40 PM,82.4,62.6,51,30.04,8.0,SSE,9.2,-,N/A,,Scattered Clouds,150,2013-02-11 20:40:00
3:40 PM,80.6,62.6,54,30.00,8.0,SE,15.0,-,N/A,,Scattered Clouds,130,2013-02-11 21:40:00
4:40 PM,78.8,64.4,61,30.00,8.0,ESE,15.0,-,N/A,,Scattered Clouds,120,2013-02-11 22:40:00
5:40 PM,77.0,64.4,65,29.97,7.0,ESE,9.2,-,N/A,,Scattered Clouds,120,2013-02-11 23:40:00
6:40 PM,73.4,64.4,73,30.01,7.0,SE,5.8,-,N/A,,Scattered Clouds,130,2013-02-12 00:40:00
7:40 PM,73.4,64.4,73,30.02,7.0,SE,5.8,-,N/A,,Scattered Clouds,130,2013-02-12 01:40:00
8:40 PM,71.6,64.4,78,30.06,7.0,SE,5.8,-,N/A,,Scattered Clouds,130,2013-02-12 02:40:00
9:41 PM,71.6,64.4,78,30.04,7.0,ESE,6.9,-,N/A,,Partly Cloudy,120,2013-02-12 03:41:00
10:40 PM,71.6,64.4,78,30.04,7.0,ESE,4.6,-,N/A,,Scattered Clouds,120,2013-02-12 04:40:00
11:46 PM,69.8,64.4,83,29.99,7.0,ESE,5.8,-,N/A,,Partly Cloudy,120,2013-02-12 05:46:00